FENGYUN 1C DEB, 30964

Orbit data source: Space-Track

FENGYUN 1C DEB, 30964 is space debris in SSO originally from a launch on Mon, 10 May 1999 UTC launched from the Taiyaun Space Center, China (TSC). Fengyun 1C debris stems from the Chinese weather satellite Fengyun-1C, which was intentionally destroyed by a Chinese anti-satellite missile in 2007. This event dramatically increased the amount of space debris, with thousands of trackable fragments posing hazards to satellites and human spaceflight. The Fengyun 1C debris cloud has become a focal point in discussions about space sustainability and the need for international regulations to prevent the creation of new debris.

Loading next visibility...
Identifier
30964, 1999-025BBE
Orbit
SSO
Country
Flag of CNCN / PRC
Related business
Manufacturer
Unknown
Mission
Spacecraft
Bus & Motor
Unknown
Mass
Unknown
Launch date (UTC)
1999-05-10 (26 years ago)
Launch vehicle
Unknown
Launch site
Taiyaun Space Center, China (TSC)
Object type
Payload
Rocket body
Debris
Shape & HBR
Unknown shape, 0.1 m
Radar Cross Section
Small (<0.1 m²)

Expand to show TLE details & history
Last TLE update: 5 hours ago

TLE from 5 hours ago
0 FENGYUN 1C DEB
1 30964U 99025BBE 25289.18623068  .00003541  00000-0  22295-2 0  9992
2 30964  98.6531 259.5940 0143031  36.6630 342.6366 13.99968102945901
Epoch: 2025-10-16T04:28Z
TLE epoch observation values (Epoch: 2025-10-16T04:28:10.330Z)
Latitude
18.57643°
Longitude
164.68531°
Altitude
797.119 km
Speed
7.507 km/s
True Right ascension
17h 06m 42s
True Declination
18° 28' 24"
Sunlit
Object was in daylight at epoch
Visualization orbit readout
Latitude
Unknown
Longitude
Unknown
Altitude
Unknown
Speed
Unknown
Apparent Right ascension
Unknown
Apparent Declination
Unknown
Sunlit
N/A
Visualization observer readout
Local Sidereal Time
04:25:33
Azimuth
Unknown
Elevation
Unknown
Doppler factor
Unknown
Orbital elements
Apogee altitude
995.06 km
Perigee altitude
787.115 km
Semi-major axis
7,269.225 km
Eccentricity
0.0143
Inclination
98.6531°
RAAN
259.594°
Arg. of periapsis
36.663°
True anomaly
342.13899°
Mean anomaly
342.6366°
Eccentric anomaly
342.38865°
Mean motion
3.50196 °/min
Orbital period
102.8 mins
BSTAR
0.0022295
Loading maneuver chart data...
Computing Atmospheric mass density...

Documentation

Showing up to 5 results
|